Showing default

COSMOS 2534 (GLONASS), 44299

Orbit data source: Space-Track

COSMOS 2534 (GLONASS), 44299 is a Commonwealth of Independent States-origin payload satellite in MEO that was launched on Mon, 27 May 2019 UTC via a SOYUZ-2-1B launch vehicle from the Plesetsk Missile And Space Complex (PKMTR). Payload-class satellites include a variety of spacecraft equipped with specific instruments for various scientific and technological missions. These include communications satellites like Starlink; space stations such as the ISS; scientific satellites like the Hubble; Earth observation satellites from companies like Planet Labs, Umbra, and HawkEye 360; GPS; miniature CubeSats for education and research; and military/defense satellites.

Loading next visibility...
Identifier
44299, 2019-030A
Orbit
MEO
Country
Flag of CISCIS
Related business
Manufacturer
Resehetnev ISS
Mission
Operational Defense Navigation
Bus & Motor
URAGAN, Unknown motor
Mass
1,450 kg wet, ~1,200 kg dry
Launch date (UTC)
2019-05-27 (7 years ago)
Launch vehicle
SOYUZ-2-1B
Launch site
Plesetsk Missile And Space Complex (PKMTR)
Object type
Payload
Rocket body
Debris
Shape & HBR
Cyl + 1 Ant + 2 Pan, 3.9 m
Radar Cross Section
8.467 m², Large (>1 m²)

Expand to show TLE details & history
Last TLE update: 4 days ago

TLE from 4 days ago
0 COSMOS 2534 (GLONASS)
1 44299U 19030A   25344.60722874  .00000047  00000-0  00000+0 0  9995
2 44299  64.3653 198.9649 0008999 283.4628 263.2195  2.13102261 50901
Epoch: 2025-12-10T14:34Z
TLE epoch observation values (Epoch: 2025-12-10T14:34:24.563Z)
Latitude
-5.93026°
Longitude
83.64509°
Altitude
19,134.141 km
Speed
3.953 km/s
True Right ascension
01h 27m 17s
True Declination
-5° 55' 13"
Sunlit
Object was in daylight at epoch
Visualization orbit readout
Latitude
Unknown
Longitude
Unknown
Altitude
Unknown
Speed
Unknown
Apparent Right ascension
Unknown
Apparent Declination
Unknown
Sunlit
N/A
Visualization observer readout
Local Sidereal Time
20:56:43
Azimuth
Unknown
Elevation
Unknown
Doppler factor
Unknown
Orbital elements
Apogee altitude
19,152.458 km
Perigee altitude
19,106.549 km
Semi-major axis
25,507.641 km
Eccentricity
0.0009
Inclination
64.3653°
RAAN
198.9649°
Arg. of periapsis
283.4628°
True anomaly
263.11711°
Mean anomaly
263.2195°
Eccentric anomaly
263.16831°
Mean motion
0.53277 °/min
Orbital period
675.72 mins
BSTAR
0
Loading maneuver chart data...
Computing Atmospheric mass density...
Loading historical data...
Loading historical data...
Loading historical data...
Loading historical data...
Loading historical data...
Loading historical data...
Loading historical data...
Other satellites on launch #30 in the year 2019 (2019-05-27 UTC)

Documentation

Showing up to 5 results
|